TimeCET,TemperatureF,Dew PointF,Humidity,Sea Level PressureIn,VisibilityMPH,Wind Direction,Wind SpeedMPH,Gust SpeedMPH,PrecipitationIn,Events,Conditions,WindDirDegrees,DateUTC
12:00 AM,28.4,17.6,64,29.83,6.2,SE,6.9,-,N/A,,Overcast,140,2013-02-11 23:00:00
12:40 AM,28.4,21.2,74,29.83,2.5,SSE,10.4,-,N/A,Snow,Light Snow,150,2013-02-11 23:40:00
1:00 AM,26.6,23.0,86,29.83,-9999.0,SE,6.9,-,N/A,Snow,Light Snow,140,2013-02-12 00:00:00
2:00 AM,26.6,23.0,86,29.83,-9999.0,SE,8.1,-,N/A,Snow,Light Snow,130,2013-02-12 01:00:00
2:16 AM,26.6,23.0,86,29.83,1.7,ESE,8.1,-,N/A,Snow,Light Snow,120,2013-02-12 01:16:00
2:34 AM,26.6,23.0,86,29.83,-9999.0,ESE,8.1,-,N/A,Snow,Light Snow,110,2013-02-12 01:34:00
3:00 AM,26.6,23.0,86,29.83,2.2,East,6.9,-,N/A,Snow,Light Snow,90,2013-02-12 02:00:00
3:55 AM,26.6,23.0,86,29.80,6.2,East,9.2,-,N/A,,Overcast,100,2013-02-12 02:55:00
4:00 AM,26.6,23.0,86,29.80,6.2,East,9.2,-,N/A,,Overcast,100,2013-02-12 03:00:00
5:00 AM,26.6,23.0,86,29.80,6.2,East,9.2,-,N/A,,Overcast,90,2013-02-12 04:00:00
6:00 AM,26.6,21.2,80,29.80,6.2,East,10.4,-,N/A,,Overcast,90,2013-02-12 05:00:00
7:00 AM,26.6,21.2,80,29.80,5.0,East,6.9,-,N/A,,Overcast,90,2013-02-12 06:00:00
8:00 AM,26.6,21.2,80,29.80,6.2,ESE,8.1,-,N/A,,Overcast,110,2013-02-12 07:00:00
9:00 AM,26.6,23.0,86,29.80,6.2,East,9.2,-,N/A,,Overcast,90,2013-02-12 08:00:00
10:00 AM,28.4,23.0,80,29.83,6.2,East,6.9,-,N/A,,Overcast,80,2013-02-12 09:00:00
10:15 AM,28.4,23.0,80,29.83,2.8,East,8.1,-,N/A,Snow,Light Snow,90,2013-02-12 09:15:00
10:20 AM,28.4,23.0,80,29.83,1.6,East,6.9,-,N/A,Snow,Light Snow,90,2013-02-12 09:20:00
11:00 AM,26.6,24.8,93,29.83,1.1,East,12.7,-,N/A,Snow,Light Snow,80,2013-02-12 10:00:00
11:35 AM,28.4,26.6,93,29.83,-9999.0,East,12.7,-,N/A,Snow,Light Snow,80,2013-02-12 10:35:00
12:00 PM,28.4,26.6,93,29.80,-9999.0,East,12.7,-,N/A,Snow,Light Snow,80,2013-02-12 11:00:00
12:05 PM,28.4,26.6,93,29.80,1.7,East,11.5,-,N/A,Snow,Light Snow,80,2013-02-12 11:05:00
12:35 PM,28.4,26.6,93,29.80,0.7,East,8.1,-,N/A,Snow,Snow,90,2013-02-12 11:35:00
1:00 PM,28.4,26.6,93,29.80,0.9,East,8.1,-,N/A,Snow,Snow,90,2013-02-12 12:00:00
1:10 PM,28.4,26.6,93,29.80,1.2,East,8.1,-,N/A,Snow,Light Snow,90,2013-02-12 12:10:00
1:35 PM,30.2,26.6,86,29.77,-9999.0,East,11.5,-,N/A,Snow,Light Snow,90,2013-02-12 12:35:00
2:00 PM,30.2,26.6,86,29.77,2.8,East,12.7,-,N/A,Snow,Light Snow,90,2013-02-12 13:00:00
2:20 PM,30.2,26.6,86,29.77,3.1,East,12.7,-,N/A,Snow,Light Snow,90,2013-02-12 13:20:00
3:00 PM,30.2,26.6,86,29.80,3.1,East,12.7,-,N/A,Snow,Light Snow,100,2013-02-12 14:00:00
3:45 PM,28.4,24.8,86,29.80,2.2,East,11.5,-,N/A,Snow,Light Snow,100,2013-02-12 14:45:00
4:00 PM,28.4,24.8,86,29.80,1.6,East,11.5,-,N/A,Snow,Light Snow,100,2013-02-12 15:00:00
5:00 PM,28.4,26.6,93,29.80,1.0,East,9.2,-,N/A,Snow,Light Snow,90,2013-02-12 16:00:00
5:10 PM,28.4,26.6,93,29.80,0.6,East,8.1,-,N/A,Snow,Snow,90,2013-02-12 16:10:00
6:00 PM,26.6,26.6,100,29.83,0.7,East,8.1,-,N/A,Snow,Snow,80,2013-02-12 17:00:00
7:00 PM,26.6,26.6,100,29.86,0.7,East,6.9,-,N/A,Snow,Snow,90,2013-02-12 18:00:00
8:00 PM,26.6,26.6,100,29.86,0.9,East,8.1,-,N/A,Snow,Snow,90,2013-02-12 19:00:00
9:00 PM,28.4,26.6,93,29.86,0.9,East,5.8,-,N/A,Snow,Snow,80,2013-02-12 20:00:00
10:00 PM,28.4,26.6,93,29.89,1.6,ENE,4.6,-,N/A,Snow,Light Snow,70,2013-02-12 21:00:00
11:00 PM,28.4,26.6,93,29.89,1.2,ENE,5.8,-,N/A,Snow,Light Snow,70,2013-02-12 22:00:00
11:10 PM,28.4,26.6,93,29.89,1.1,East,5.8,-,N/A,Snow,Light Snow,80,2013-02-12 22:10:00
11:20 PM,28.4,26.6,93,29.89,0.7,East,6.9,-,N/A,Snow,Snow,80,2013-02-12 22:20:00